Location: Bush Observatory
(40.2653°N, 94.3194°W)
Time: 03:20:00
(UTC-05:00)

FO-29 - Visible Passes

Search period start: 26 May 2018 00:00
Search period end: 05 June 2018 00:00
Orbit: 800 x 1322 km, 98.5° (Epoch: 25 May)

Date Brightness Start Highest point End Pass type
(mag) Time Alt. Az. Time Alt. Az. Time Alt. Az.
26 May 11.3 21:33:11 10° N 21:37:56 30° WNW 21:42:24 10° SW visible
27 May 12.5 22:25:41 10° NW 22:27:14 11° NW 22:28:46 10° WNW visible
28 May 11.2 21:28:07 10° N 21:32:54 32° WNW 21:37:27 10° SW visible
29 May 12.3 22:20:18 10° NW 22:22:16 12° WNW 22:24:11 10° WNW visible
30 May 11.0 21:23:03 10° N 21:27:52 34° WNW 21:32:30 10° SW visible
31 May 12.3 22:14:58 10° NNW 22:17:17 13° WNW 22:19:32 10° W visible
01 Jun 10.9 21:17:57 10° N 21:22:49 37° WNW 21:27:32 10° SW visible
02 Jun 12.2 22:09:41 10° NNW 22:12:17 14° WNW 22:14:51 10° W visible
03 Jun 10.7 21:12:52 10° N 21:17:46 40° WNW 21:22:34 10° SW visible
04 Jun 12.1 22:04:25 10° NNW 22:07:17 15° WNW 22:10:07 10° W visible
